Flight Track Log - Related Links

Times and Time Zones

All times are in EST time to prevent confusion due to time zone crossing. See the GJS6224 flight status page for this flight to view local times or setup timezone preferences in your user account.

Time Position Orientation Groundspeed Altitude Reporting Facility
EST Latitude Longitude Course Direction KTS MPH feet Rate Location/Type
09:36AM 40.8333 -73.8333 313° West 186 214 3,400  Level New York TRACON
09:37AM 40.8833 -73.8667 333° Northwest 246 283 5,800 2,850 Climbing New York TRACON
09:38AM 40.9333 -73.9500 308° West 254 292 9,100 3,250 Climbing New York TRACON
09:39AM 40.9667 -74.0167 304° West 255 293 12,300 2,550 Climbing New York TRACON
09:40AM 41.0167 -74.1000 309° West 288 331 14,200 1,762 Climbing New York TRACON
09:41AM 41.0933 -74.3689 313° West  Level FlightAware Approximate
09:41AM 41.0500 -74.2000 294° West 299 344 16,000  Level New York TRACON
09:44AM 41.1589 -74.4336 302° West 292 336 16,000 44 Level New York Center
09:46AM 41.2589 -74.6294 304° West 318 366 16,200 633 Climbing New York Center
09:47AM 41.3181 -74.7294 308° West 332 382 17,900 1,500 Climbing New York Center
09:48AM 41.3833 -74.8328 310° West 349 402 19,200 1,050 Climbing New York Center
09:49AM 41.4486 -74.9308 312° West 360 414 20,000 397 Climbing New York Center
09:50AM 41.5156 -75.0403 309° West 370 426 20,000  Level New York Center
09:51AM 41.5739 -75.1522 305° West 375 432 20,000  Level New York Center
09:52AM 41.6128 -75.2850 291° West 375 432 20,000  Level New York Center
09:53AM 41.6475 -75.4097 290° West 369 425 20,000  Level New York Center
09:54AM 41.6839 -75.5400 291° West 369 425 20,000  Level New York Center
09:55AM 41.7186 -75.6619 291° West 364 419 20,000  Level New York Center
09:56AM 41.7547 -75.7897 291° West 364 419 20,000  Level New York Center
09:57AM 41.7911 -75.9175 291° West 364 419 20,000  Level New York Center
09:58AM 41.8272 -76.0428 291° West 364 419 20,000  Level New York Center
09:59AM 41.9097 -76.1525 315° West 364 419 20,000  Level New York Center
10:00AM 41.9803 -76.2503 314° West 364 419 20,000  Level New York Center
10:01AM 42.0528 -76.3483 315° West 364 419 20,000  Level New York Center
10:02AM 42.1747 -76.5114 315° West 373 429 20,000 -144 Level Cleveland Center
10:03AM 42.2469 -76.6108 314° West 372 428 19,600 -629 Descending Cleveland Center
10:04AM 42.3169 -76.7064 315° West 363 418 18,700 -871 Descending Cleveland Center
10:05AM 42.3831 -76.7972 315° West 349 402 17,800 -823 Descending Cleveland Center
10:06AM 42.4603 -76.9042 314° West 335 386 17,000 -865 Descending Cleveland Center
10:07AM 42.5056 -76.9675 314° West 329 379 16,300 -984 Descending Cleveland Center
10:07AM 42.5239 -76.9919 316° Northwest 332 382 16,000 -984 Descending Cleveland Center
10:08AM 42.5725 -77.0503 319° Northwest 326 375 15,300 -968 Descending Cleveland Center
10:08AM 42.5925 -77.0722 321° Northwest 326 375 15,000 -1,075 Descending Cleveland Center
10:09AM 42.6514 -77.1392 320° Northwest 325 374 14,100 -968 Descending Cleveland Center
10:10AM 42.6611 -77.1497 321° Northwest 326 375 14,000 -889 Descending Cleveland Center
10:10AM 42.7100 -77.2058 320° Northwest 323 372 13,300 -968 Descending Cleveland Center
10:11AM 42.7294 -77.2278 320° Northwest 326 375 13,000 -982 Descending Cleveland Center
10:11AM 42.7775 -77.2692 328° Northwest 313 360 12,400 -968 Descending Cleveland Center
10:12AM 42.8050 -77.2836 339° North 318 366 12,000 -1,091 Descending Cleveland Center
10:12AM 42.8625 -77.3142 339° North 269 310 11,200 -1,355 Descending Cleveland Center
10:13AM 42.8883 -77.3261 341° North 272 313 10,600 -1,574 Descending Cleveland Center
10:13AM 42.9300 -77.3461 341° North 255 293 9,600 -1,742 Descending Cleveland Center
10:14AM 42.9556 -77.3575 342° North 261 300 8,800 -1,855 Descending Cleveland Center
10:14AM 42.9917 -77.3764 339° North 259 298 7,900 -1,742 Descending Cleveland Center
10:15AM 43.0225 -77.3939 337° Northwest 261 300 7,000 -1,700 Descending Cleveland Center
10:15AM 43.0558 -77.4164 334° Northwest 254 292 6,200 -1,475 Descending Cleveland Center
10:16AM 43.0844 -77.4358 334° Northwest 257 296 5,500 -1,377 Descending Cleveland Center
10:16AM 43.1156 -77.4608 330° Northwest 240 276 4,800 -1,161 Descending Cleveland Center
10:17AM 43.1419 -77.4806 331° Northwest 245 282 4,300 -1,000 Descending Cleveland Center
10:17AM 43.1725 -77.5078 327° Northwest 221 254 3,700 -1,161 Descending Cleveland Center
10:18AM 43.1989 -77.5400 318° Northwest 223 257 3,100 -1,082 Descending Cleveland Center
10:18AM 43.2031 -77.5767 279° West 208 239 2,600 -871 Descending Cleveland Center
10:19AM 43.1911 -77.6083 243° Southwest 205 236 2,200 -632 Descending Cleveland Center
10:20AM 43.1608 -77.6439 221° Southwest 171 197 1,600 -614 Descending Cleveland Center
10:20AM 43.1475 -77.6547 211° Southwest 105 121 1,300 -787 Descending Cleveland Center
10:21AM 43.1336 -77.6658 210° Southwest 139 160 800 -433 Descending Cleveland Center
10:22AM 43.1081 -77.6869 211° Southwest 132 152 600 -194 Descending Cleveland Center

Login

Don't have an account? Register now (free) for customized features, flight alerts, and more!